Columbia, SC

11:31 AM EDT on September 21, 2017 (GMT -0400)
Columbia Metro

Weather History for KCAE - July, 2013

Change the Weather History Date:

Thursday, July 4, 2013

  Actual Average Record
Temperature  
Mean Temperature 82 °F 82 °F  
Max Temperature 89 °F 93 °F 102 °F (1948)
Min Temperature 74 °F 71 °F 59 °F (1933)
Degree Days  
Heating Degree Days 0 0  
Month to date heating degree days 0 0  
Since 1 June heating degree days 0 1  
Since 1 July heating degree days 0 0  
Cooling Degree Days 17 17  
Month to date cooling degree days 52 68  
Year to date cooling degree days 806 813  
Since 1 June cooling degree days 486 492  
Growing Degree Days 31 (Base 50)    
Moisture  
Dew Point 74 °F    
Average Humidity 80    
Maximum Humidity 100    
Minimum Humidity 59    
Precipitation  
Precipitation 0.30 in 0.16 in 4.00 in (1991)
Month to date precipitation 1.27 0.62  
Year to date precipitation 26.06 21.82  
Sea Level Pressure  
Sea Level Pressure 30.18 in    
Wind  
Wind Speed 7 mph (ESE)    
Max Wind Speed 23 mph    
Max Gust Speed 31 mph    
Visibility 8 miles    
Events Rain , Thunderstorm    
T = Trace of Precipitation, MM = Missing Value Source: NWS Daily Summary

Daily Weather History Graph

Daily Weather History Graph

Search for Another Location

Airport or City:

Trip Planner

Search our weather history database for the weather conditions in past years. The results will help you decide how hot, cold, wet, or windy it might be!

Date:

Astronomy

Jul. 04, 2013 Rise Set
Actual Time 6:18 AM EDT 8:39 PM EDT
Civil Twilight 5:49 AM EDT 9:08 PM EDT
Nautical Twilight 5:13 AM EDT 9:43 PM EDT
Astronomical Twilight 4:35 AM EDT 10:22 PM EDT
Moon 3:30 AM EDT (7/4) 5:45 PM EDT (7/4)
Length of Visible Light 15h 18m
Length of Day
14h 20m
Waning Crescent, 11% of the Moon is Illuminated
Jul 4
Waning Crescent
Jul 8
New
Jul 15
First Quarter
Jul 22
Full
Jul 29
Last Quarter

Hourly Weather History & Observations

Time (EDT) Temp. Heat Index Dew Point Humidity Pressure Visibility Wind Dir Wind Speed Gust Speed Precip Events Conditions
12:36 AM 73.4 °F - 73.4 °F 100% 30.21 in 10.0 mi East 4.6 mph - N/A   Overcast
12:56 AM 73.9 °F - 73.9 °F 100% 30.20 in 9.0 mi ESE 3.5 mph - N/A   Overcast
1:56 AM 73.9 °F - 73.9 °F 100% 30.19 in 9.0 mi ESE 4.6 mph - N/A   Overcast
2:56 AM 73.9 °F - 73.9 °F 100% 30.17 in 8.0 mi ESE 5.8 mph - N/A   Overcast
3:56 AM 73.9 °F - 73.9 °F 100% 30.17 in 1.5 mi Calm Calm - 0.03 in Rain Heavy Rain
4:00 AM 73.4 °F - 73.4 °F 100% 30.18 in 1.5 mi East 6.9 mph - 0.09 in Rain Light Rain
4:05 AM 73.4 °F - 73.4 °F 100% 30.18 in 4.0 mi East 8.1 mph - 0.09 in Rain Light Rain
4:56 AM 73.9 °F - 73.9 °F 100% 30.17 in 9.0 mi ESE 6.9 mph - 0.13 in   Mostly Cloudy
5:18 AM 73.4 °F - 73.4 °F 100% 30.18 in 10.0 mi ESE 4.6 mph - N/A   Partly Cloudy
5:43 AM 73.4 °F - 73.4 °F 100% 30.18 in 10.0 mi East 5.8 mph - N/A   Mostly Cloudy
5:56 AM 73.9 °F - 73.0 °F 97% 30.18 in 9.0 mi East 4.6 mph - N/A   Overcast
6:56 AM 73.9 °F - 73.0 °F 97% 30.19 in 9.0 mi East 4.6 mph - N/A   Overcast
7:01 AM 73.4 °F - 73.4 °F 100% 30.20 in 9.0 mi East 5.8 mph - N/A   Overcast
7:19 AM 73.4 °F - 73.4 °F 100% 30.21 in 6.0 mi East 4.6 mph - N/A   Overcast
7:56 AM 75.0 °F - 73.9 °F 96% 30.21 in 5.0 mi East 4.6 mph - N/A   Overcast
8:08 AM 75.2 °F - 73.4 °F 94% 30.22 in 3.0 mi East 4.6 mph - N/A   Overcast
8:48 AM 75.2 °F - 75.2 °F 100% 30.22 in 6.0 mi ESE 6.9 mph - N/A   Overcast
8:56 AM 77.0 °F - 75.0 °F 94% 30.21 in 6.0 mi ESE 6.9 mph - N/A   Mostly Cloudy
9:56 AM 81.0 °F 87.3 °F 75.9 °F 85% 30.20 in 10.0 mi SE 11.5 mph - N/A   Overcast
10:19 AM 80.6 °F 85.4 °F 73.4 °F 79% 30.21 in 10.0 mi SSE 8.1 mph 18.4 mph N/A   Scattered Clouds
10:56 AM 84.0 °F 91.2 °F 73.9 °F 72% 30.20 in 10.0 mi ESE 11.5 mph - N/A   Mostly Cloudy
11:56 AM 84.0 °F 91.2 °F 73.9 °F 72% 30.20 in 10.0 mi SSE 8.1 mph - 0.00 in   Scattered Clouds
12:56 PM 82.0 °F 88.6 °F 75.0 °F 79% 30.19 in 10.0 mi East 9.2 mph - 0.06 in   Scattered Clouds
1:56 PM 82.9 °F 90.8 °F 75.9 °F 79% 30.17 in 10.0 mi Variable 3.5 mph - 0.01 in   Mostly Cloudy
2:22 PM 82.4 °F 89.5 °F 75.2 °F 79% 30.16 in 6.0 mi SW 4.6 mph - 0.01 in Rain , Thunderstorm Thunderstorms and Rain
2:49 PM 86.0 °F 95.1 °F 75.2 °F 70% 30.16 in 10.0 mi SW 3.5 mph - 0.01 in   Scattered Clouds
2:56 PM 86.0 °F 96.0 °F 75.9 °F 72% 30.14 in 10.0 mi North 3.5 mph - 0.01 in   Mostly Cloudy
3:56 PM 87.1 °F 97.3 °F 75.9 °F 69% 30.14 in 10.0 mi East 13.8 mph - N/A   Mostly Cloudy
4:56 PM 88.0 °F 93.8 °F 71.1 °F 57% 30.13 in 10.0 mi SSE 15.0 mph 25.3 mph N/A   Mostly Cloudy
5:49 PM 78.8 °F - 71.6 °F 78% 30.15 in 6.0 mi SE 10.4 mph 29.9 mph 0.06 in Rain , Thunderstorm Heavy Thunderstorms and Rain
5:56 PM 79.0 °F - 73.9 °F 84% 30.15 in 6.0 mi SE 6.9 mph - 0.06 in Rain , Thunderstorm Light Thunderstorms and Rain
6:13 PM 80.6 °F 85.4 °F 73.4 °F 79% 30.16 in 10.0 mi SSE 8.1 mph - 0.00 in   Scattered Clouds
6:56 PM 78.1 °F - 73.0 °F 84% 30.17 in 8.0 mi South 15.0 mph - 0.00 in Rain Light Rain
7:56 PM 77.0 °F - 72.0 °F 84% 30.18 in 10.0 mi South 8.1 mph - 0.00 in   Mostly Cloudy
8:56 PM 77.0 °F - 72.0 °F 84% 30.18 in 10.0 mi SSE 4.6 mph - N/A   Mostly Cloudy
9:56 PM 75.9 °F - 73.0 °F 91% 30.19 in 10.0 mi East 4.6 mph - N/A   Mostly Cloudy
10:56 PM 75.0 °F - 73.0 °F 94% 30.20 in 9.0 mi ESE 3.5 mph - N/A   Mostly Cloudy
11:56 PM 75.0 °F - 73.9 °F 96% 30.20 in 9.0 mi ESE 5.8 mph - N/A   Mostly Cloudy